Date,TemperatureHighF,TemperatureAvgF,TemperatureLowF,DewpointHighF,DewpointAvgF,DewpointLowF,HumidityHigh,HumidityAvg,HumidityLow,PressureMaxIn,PressureMinIn,WindSpeedMaxMPH,WindSpeedAvgMPH,GustSpeedMaxMPH,PrecipitationSumIn
2013-1-1,15,5,-3,3,-1,-6,88,74,56,30.35,30.24,5,1,0,0.00
2013-1-2,24,18,10,16,10,2,82,71,52,30.25,30.12,12,2,0,0.00
2013-1-3,25,20,10,20,16,5,86,82,77,30.29,30.12,8,3,12,0.00
2013-1-4,30,20,9,19,14,4,86,76,60,30.26,30.15,10,3,14,0.00
2013-1-5,35,26,13,32,22,10,92,85,75,30.29,29.92,10,3,14,0.00
2013-1-6,34,26,21,30,20,16,83,80,74,30.24,29.92,13,5,19,0.00
2013-1-7,32,30,29,25,25,24,83,80,75,30.11,30.09,6,2,0,0.00
2013-1-8,38,31,20,32,26,18,95,82,69,30.14,29.96,13,3,19,0.00
2013-1-9,38,31,22,31,26,19,87,80,68,30.50,29.95,12,3,17,0.00
2013-1-10,39,30,17,34,26,15,95,83,68,30.53,29.92,12,2,16,0.24
2013-1-11,46,38,34,45,37,33,98,97,95,29.91,29.64,13,2,17,0.02
2013-1-12,33,27,21,27,20,15,81,73,65,30.05,29.87,12,4,19,0.00
2013-1-13,22,16,12,15,9,4,79,73,66,30.26,29.95,12,5,16,0.00
2013-1-14,18,15,14,11,10,9,80,78,74,30.48,30.46,2,0,0,0.00
2013-1-15,29,19,10,15,11,7,90,73,51,30.50,30.31,11,2,15,0.00
2013-1-17,20,13,10,11,8,7,86,80,67,30.47,30.42,1,0,0,0.00
2013-1-18,42,29,10,32,22,7,87,75,65,30.48,29.86,18,5,25,0.00
2013-1-19,46,36,15,34,27,2,84,71,39,30.00,29.68,21,6,34,0.00
2013-1-20,15,9,6,3,-1,-2,69,61,50,30.37,30.01,18,6,29,0.00
2013-1-21,3,-2,-4,-8,-10,-11,73,68,56,30.38,30.27,11,6,16,0.00
2013-1-22,7,0,-9,-4,-8,-12,81,67,56,30.47,30.38,9,2,0,0.00
2013-1-23,18,11,3,14,4,-5,88,73,61,30.52,30.17,20,4,27,0.00
2013-1-24,16,6,-2,9,-2,-7,77,69,60,30.75,30.42,14,2,18,0.00
2013-1-25,25,19,13,17,12,6,85,74,61,30.42,30.00,12,5,18,0.00
2013-1-26,25,16,5,13,7,2,84,68,52,30.47,30.28,9,2,12,0.00
2013-1-27,29,25,22,26,18,13,91,73,66,30.40,30.11,12,4,19,0.00
2013-1-29,37,35,34,36,34,33,96,96,95,29.55,29.51,6,3,0,1.96
2013-1-30,35,32,30,34,31,29,97,96,95,29.53,29.36,11,4,14,0.06
2013-1-31,6,3,0,3,-3,-5,85,76,75,30.24,30.10,16,6,18,0.00
2013-2-1,5,0,-7,2,-6,-10,86,75,62,30.41,30.22,9,3,14,0.00
2013-2-2,10,6,5,3,2,1,87,83,72,30.22,30.14,6,2,0,0.00
2013-2-3,19,16,14,12,9,7,89,73,62,30.11,30.07,11,2,14,0.00
2013-2-4,19,14,6,12,8,2,90,79,57,30.08,30.00,7,1,0,0.00
2013-2-5,28,23,11,24,18,9,88,82,78,30.17,29.96,11,4,0,0.00
2013-2-6,33,19,-1,30,14,-3,93,83,69,30.29,30.12,8,2,13,0.00
2013-2-7,35,30,21,33,29,20,95,93,88,30.14,29.96,11,3,15,0.09
2013-2-8,22,21,20,20,19,18,93,90,85,30.29,30.14,12,6,17,0.00
2013-2-9,29,26,20,25,23,18,94,88,82,30.41,30.12,16,5,18,0.00
2013-2-10,42,33,22,41,32,20,98,94,85,30.12,29.42,17,5,21,0.65
2013-2-11,38,30,25,34,26,20,90,83,76,30.04,29.42,22,7,26,0.00
2013-2-12,25,22,20,20,16,15,83,80,72,30.13,30.04,13,4,13,0.00
2013-2-14,32,30,26,25,22,19,88,73,65,30.05,29.92,12,4,19,0.04
2013-2-15,26,19,11,20,9,3,79,66,47,30.28,30.05,11,5,18,0.00
2013-2-16,17,10,2,5,2,-2,87,69,48,30.27,30.21,11,2,17,0.00
2013-2-17,16,3,-2,6,-2,-5,90,82,54,30.28,30.26,4,0,0,0.00
2013-2-20,22,18,13,11,9,7,77,69,59,30.46,30.43,7,2,0,0.00
2013-2-21,25,18,9,24,14,4,94,85,74,30.51,30.13,9,2,14,0.00
2013-2-22,32,27,23,26,24,21,93,88,78,30.12,29.84,10,2,14,0.00
2013-2-23,30,26,21,22,20,16,87,79,65,30.00,29.89,8,3,14,0.01
2013-2-24,40,26,14,26,19,12,93,77,52,30.19,30.00,4,0,0,0.09
2013-2-25,42,28,14,28,22,12,93,78,56,30.22,30.09,6,1,0,0.01
2013-2-26,34,30,26,28,26,23,89,84,74,30.08,29.77,9,2,17,0.00
2013-2-27,32,31,31,30,30,29,96,94,91,29.85,29.81,12,6,14,0.01
2013-2-28,34,30,23,30,26,18,95,84,72,30.19,29.85,12,5,17,0.00
2013-3-1,28,21,7,20,16,5,94,82,64,30.32,30.18,11,3,14,0.00
2013-3-2,30,14,3,17,8,1,93,78,56,30.34,30.25,8,1,0,0.00
2013-3-3,31,14,-2,14,6,-4,91,73,47,30.25,30.17,3,0,0,0.03
2013-3-4,34,24,6,26,17,2,87,76,60,30.20,30.08,7,2,12,0.00
2013-3-5,29,27,24,27,25,22,94,91,85,30.16,29.94,10,3,17,0.00
2013-3-6,32,28,24,26,23,18,92,83,76,30.38,30.17,12,4,0,0.00
2013-3-7,37,22,5,22,15,3,94,77,52,30.49,30.37,5,0,0,0.05
2013-3-8,39,28,10,28,22,8,95,80,61,30.52,30.32,9,3,16,0.00
2013-3-9,41,35,29,36,31,24,95,84,71,30.32,29.83,12,4,17,0.46
2013-3-10,41,38,34,40,36,33,97,96,92,29.84,29.66,9,2,15,1.18
2013-3-11,34,32,29,33,30,25,97,94,84,29.81,29.59,10,4,17,0.03
2013-3-12,32,28,24,26,23,18,93,82,67,30.07,29.81,14,5,18,0.00
2013-3-13,33,24,18,21,12,9,87,62,38,30.37,30.07,14,5,18,0.00
2013-3-14,38,26,15,27,19,10,92,76,60,30.37,30.12,9,2,13,0.04
2013-3-15,37,31,26,33,28,25,96,91,83,30.10,29.86,6,1,0,0.11
2013-3-16,29,26,20,26,20,17,93,79,69,30.20,29.85,9,4,18,0.00
2013-3-17,34,23,15,21,14,8,85,70,58,30.33,30.06,8,2,12,0.00
2013-3-18,35,26,17,30,22,10,93,86,75,30.05,29.62,14,3,21,0.05
2013-3-19,30,20,11,13,9,6,82,65,45,30.12,29.78,15,7,24,0.00
2013-3-20,21,14,8,8,4,-1,69,62,51,30.16,30.09,14,6,20,0.00
2013-3-21,29,18,7,13,7,2,78,64,46,30.14,30.08,9,2,0,0.00
2013-3-22,37,22,9,19,12,5,87,67,43,30.15,30.09,4,0,0,0.01
2013-3-23,40,28,16,23,18,12,89,68,44,30.20,30.11,3,0,0,0.12
2013-3-24,32,29,26,28,25,22,91,84,74,30.13,29.84,12,3,19,0.04
2013-3-25,35,30,24,26,23,19,83,75,67,30.15,29.89,11,5,18,0.30
2013-3-26,41,34,29,29,25,23,81,69,54,30.30,30.15,8,3,0,0.78
2013-3-27,43,35,26,27,23,20,78,63,43,30.36,30.30,6,1,0,0.81
2013-3-28,47,34,22,25,22,18,85,62,37,30.40,30.33,6,1,0,0.50
2013-3-29,51,37,21,29,24,18,92,61,36,30.38,30.26,4,0,0,0.52
2013-3-30,52,43,35,41,33,23,92,68,55,30.26,29.84,15,4,19,0.00
2013-3-31,46,39,32,41,33,19,95,80,56,29.95,29.75,15,5,22,0.97
2013-4-1,35,30,25,21,16,12,68,56,40,30.25,29.95,14,6,23,0.00
2013-4-2,39,31,23,18,16,13,73,54,35,30.38,30.24,14,3,17,0.00
2013-4-3,45,34,21,22,18,14,81,52,29,30.51,30.31,7,2,12,1.16
2013-4-4,58,43,31,37,27,20,69,55,39,30.31,29.99,15,4,17,0.00
2013-4-5,49,39,26,30,26,22,85,61,38,30.28,30.08,14,2,18,0.00
2013-4-6,61,46,34,50,35,20,92,64,44,30.17,29.57,17,5,26,0.04
2013-4-7,56,44,36,46,36,32,86,73,49,29.98,29.60,12,4,20,0.95
2013-4-8,56,44,37,49,40,32,95,86,74,30.03,29.64,12,3,17,2.38
2013-4-9,41,38,36,40,37,34,97,96,93,30.06,29.90,13,2,18,1.39
2013-4-10,37,34,32,36,33,30,96,95,91,30.13,29.94,14,3,23,0.89
2013-4-11,38,36,35,37,35,33,97,95,93,29.97,29.62,15,4,22,0.67
2013-4-12,40,35,33,37,33,29,98,91,80,29.84,29.56,10,2,14,5.01
2013-4-13,37,34,30,30,28,26,89,76,66,30.04,29.83,15,4,20,6.71
2013-4-14,53,39,30,46,34,26,93,83,69,30.05,29.58,17,4,22,2.25
2013-4-15,61,48,40,50,42,34,98,81,42,29.99,29.60,14,3,21,0.59
2013-4-16,54,42,33,37,33,29,88,72,47,30.33,29.99,13,3,16,3.76
2013-4-17,43,40,36,42,37,33,96,89,79,30.35,29.89,11,2,18,12.48
2013-4-18,59,46,37,59,44,33,99,94,84,29.93,29.34,19,4,25,3.51
2013-4-19,38,35,31,33,28,23,85,77,65,29.96,29.38,18,8,26,0.00
2013-4-20,46,35,26,26,19,15,83,55,30,30.43,29.96,16,3,18,0.00
2013-4-21,53,42,31,36,29,25,81,63,44,30.53,30.29,17,5,23,0.04
2013-4-22,67,54,43,42,38,34,72,56,36,30.30,30.00,12,5,17,0.12
2013-4-23,56,44,37,47,36,29,88,76,55,30.03,29.89,19,5,19,1.20
2013-4-24,53,43,33,30,27,22,81,56,33,30.08,30.00,11,3,18,0.23
2013-4-25,51,44,37,35,32,28,88,64,43,30.31,30.00,18,3,18,0.96
2013-4-26,70,55,39,48,38,26,71,54,42,30.31,30.15,17,6,23,3.47
2013-4-27,65,56,46,50,46,43,90,70,51,30.24,30.02,9,2,12,4.51
2013-4-28,74,58,40,50,44,38,95,65,37,30.02,29.80,6,1,0,0.72
2013-4-29,70,62,53,58,53,48,84,73,58,29.86,29.71,12,4,18,0.12
2013-4-30,87,73,60,62,55,49,92,59,28,29.87,29.66,17,7,24,1.74
2013-5-1,83,67,54,59,49,-100,100,58,42,30.21,29.87,16,3,21,3.50
2013-5-2,54,46,41,54,31,-100,100,73,66,30.31,30.21,13,5,18,0.12
2013-5-3,47,44,38,46,6,-100,96,83,1,30.14,30.05,8,2,13,0.68
2013-5-4,73,58,47,57,45,-100,96,75,45,30.09,30.01,8,1,13,0.18
2013-5-5,76,60,46,55,46,-100,100,65,38,30.08,30.00,6,1,0,0.00
2013-5-6,77,61,43,50,42,-100,100,59,30,30.09,30.00,7,1,0,0.83
2013-5-7,80,68,53,49,44,-100,79,46,24,30.07,29.98,5,1,0,5.65
2013-5-8,81,67,47,51,47,41,90,53,26,30.04,29.94,6,1,15,3.23
2013-5-9,66,59,48,59,52,-100,96,80,53,29.95,29.86,7,1,13,0.92
2013-5-10,52,45,41,48,43,40,96,92,84,30.02,29.89,16,4,17,0.98
2013-5-11,53,47,42,50,37,-100,97,71,39,30.08,29.83,22,6,28,0.00
2013-5-12,54,44,35,52,25,-100,100,53,30,30.16,30.08,15,5,23,0.00
2013-5-13,64,50,28,40,32,26,96,56,27,30.21,29.92,9,2,14,1.59
2013-5-14,89,72,51,61,50,39,65,48,28,29.92,29.52,23,5,39,2.16
2013-5-15,78,70,59,61,48,41,65,46,28,29.84,29.55,13,3,18,4.42
2013-5-16,86,67,48,54,46,38,85,50,27,29.97,29.84,9,1,19,2.11
2013-5-17,61,56,48,54,46,35,94,73,47,30.10,29.97,10,2,14,0.93
2013-5-18,80,66,50,68,58,47,88,76,59,30.08,29.92,8,2,12,2.77
2013-5-19,86,72,62,67,62,58,90,73,49,29.93,29.64,18,5,24,0.05
2013-5-20,82,73,63,64,61,59,96,69,48,29.79,29.58,17,5,22,2.72
2013-5-21,77,70,58,63,60,55,92,72,54,29.68,29.58,12,4,21,1.70
2013-5-22,70,62,54,64,58,53,96,89,76,29.79,29.61,7,1,0,0.76
2013-5-23,63,54,45,52,46,39,96,78,43,30.32,29.79,13,4,18,0.12
2013-5-24,65,51,34,46,40,33,98,68,39,30.49,30.32,7,1,0,0.00
2013-5-25,62,54,47,45,38,33,76,57,44,30.41,30.31,8,2,13,0.00
2013-5-26,67,54,41,51,43,34,81,67,46,30.33,30.17,10,2,15,0.50
2013-5-27,56,53,50,53,49,43,98,88,67,30.18,29.91,10,2,18,0.04
2013-5-28,74,61,51,67,59,50,98,92,78,29.91,29.71,6,1,0,1.38
2013-5-29,83,71,61,69,63,-100,99,81,61,29.90,29.77,15,3,17,3.00
2013-5-30,84,73,62,71,46,-100,98,75,1,29.88,29.68,17,6,24,2.50
2013-5-31,76,69,64,67,18,-100,100,69,1,29.77,29.66,14,5,18,1.54
2013-6-1,79,70,61,66,43,-100,100,77,1,29.69,29.60,14,3,19,1.39
2013-6-2,64,55,46,58,-10,-100,100,84,1,30.04,29.69,15,4,22,0.14
2013-6-3,71,58,40,48,-4,-100,100,59,1,30.13,30.02,5,1,0,1.96
2013-6-4,70,62,52,65,34,-100,100,68,47,30.17,30.07,9,2,12,1.42
2013-6-5,67,56,49,62,30,-100,100,87,1,30.14,29.96,10,2,12,0.61
2013-6-6,61,56,51,55,26,-100,100,82,1,29.99,29.94,6,1,12,0.44
2013-6-7,74,60,52,61,39,-100,100,76,1,30.02,29.92,5,1,0,2.01
2013-6-8,74,63,51,60,23,-100,100,65,1,30.00,29.94,5,1,0,2.97
2013-6-9,80,68,56,68,48,-100,100,70,50,30.01,29.79,12,4,19,5.33
2013-6-10,82,71,58,66,48,-100,97,70,1,29.85,29.76,6,1,0,4.30
2013-6-11,83,73,60,68,49,-100,95,72,1,29.91,29.78,8,1,0,1.53
2013-6-12,80,70,61,71,66,59,97,88,72,29.90,29.60,21,2,21,4.07
2013-6-13,78,69,58,62,49,-100,100,71,1,30.06,29.75,13,3,16,6.85
2013-6-14,78,67,51,62,50,-100,98,71,50,30.16,30.00,7,2,12,2.93
2013-6-15,83,70,57,70,59,-100,96,80,1,30.07,29.80,9,3,14,5.21
2013-6-16,84,75,63,68,61,52,98,67,35,29.90,29.84,9,2,14,2.00
2013-6-17,85,74,62,68,54,-100,100,61,39,29.96,29.85,10,2,21,2.89
2013-6-18,76,64,55,66,34,-100,100,72,42,30.10,29.96,6,1,0,4.13
2013-6-19,81,66,46,57,21,-100,100,64,1,30.16,30.06,9,2,0,1.95
2013-6-20,88,74,58,65,42,-100,100,56,35,30.13,30.02,10,3,15,2.92
2013-6-21,81,72,65,69,65,60,97,79,62,30.08,29.81,27,3,29,7.69
2013-6-22,82,72,66,72,59,-100,96,85,1,30.09,29.89,13,3,23,6.04
2013-6-23,87,74,64,74,12,-100,97,72,1,30.05,29.83,12,4,18,0.78
2013-6-24,81,73,69,70,62,-100,94,80,1,30.00,29.81,10,2,17,3.20
2013-6-25,85,74,65,75,34,-100,97,74,1,29.93,29.78,9,2,13,2.71
2013-6-26,85,75,66,72,69,-100,98,83,60,29.78,29.69,14,2,21,2.88
2013-6-27,87,78,70,73,69,62,98,76,50,29.78,29.67,9,2,19,0.56
2013-6-28,76,69,64,70,62,-100,100,80,60,29.72,29.62,12,3,19,3.72
2013-6-29,74,67,63,66,61,-100,97,87,66,29.84,29.62,12,3,16,1.30
2013-6-30,79,67,55,62,55,-100,89,68,1,30.06,29.84,11,2,18,1.27
2013-7-1,81,68,53,61,46,-100,100,67,38,30.13,30.05,7,1,0,0.47
2013-7-2,79,66,54,69,50,-100,100,66,1,30.13,30.07,7,1,0,0.88
2013-7-3,72,64,53,64,45,-100,100,81,1,30.09,30.02,4,1,0,0.16
2013-7-4,84,73,60,64,60,56,96,69,41,30.08,30.00,9,2,12,0.80
2013-7-5,85,76,65,67,64,-100,88,68,49,30.05,29.97,12,3,15,0.00
2013-7-6,86,75,66,71,65,61,100,71,52,30.02,29.93,9,2,15,2.36
2013-7-7,90,79,68,73,68,-100,93,74,52,29.97,29.88,8,2,0,1.74
2013-7-8,88,78,72,77,72,69,95,83,67,29.96,29.87,13,3,22,0.71
2013-7-9,86,77,70,76,73,68,97,88,70,29.98,29.80,17,2,17,1.67
2013-7-10,78,73,61,74,64,57,94,74,49,30.01,29.82,15,3,20,0.00
2013-7-11,84,69,55,73,50,-100,100,72,41,30.13,30.01,7,1,0,1.83
2013-7-12,84,71,56,70,50,-100,100,62,33,30.16,30.07,9,2,0,0.00
2013-7-13,85,74,61,73,54,-100,100,66,45,30.15,30.08,9,2,12,0.02
2013-7-14,88,77,60,71,56,-100,100,70,51,30.21,30.14,11,2,12,0.07
2013-7-15,92,80,67,77,71,65,95,75,52,30.26,30.18,10,1,0,1.04
2013-7-16,92,84,74,78,75,72,95,76,57,30.26,30.20,7,2,0,0.00
2013-7-17,94,84,76,77,75,73,93,76,53,30.27,30.13,8,1,0,0.00
2013-7-18,93,85,74,76,74,72,93,71,52,30.15,29.86,11,3,17,0.00
2013-7-19,91,83,73,74,71,64,77,67,52,29.86,29.71,13,4,18,0.00
2013-7-20,84,74,61,68,63,58,92,71,50,29.96,29.81,9,2,12,0.12
2013-7-21,82,67,59,69,9,-100,96,84,1,29.97,29.86,22,2,24,1.80
2013-7-22,87,73,62,72,9,-100,97,59,1,29.89,29.62,17,3,20,0.68
2013-7-23,75,68,55,73,-25,-100,100,68,1,30.00,29.70,15,4,16,0.00
2013-7-24,76,64,52,73,20,-100,100,71,1,30.10,30.00,6,0,0,0.00
2013-7-25,80,69,56,75,23,-100,100,72,1,30.08,29.95,11,2,0,0.07
2013-7-26,77,68,64,69,-39,-100,100,57,1,29.96,29.82,9,2,14,0.33
2013-7-27,64,55,50,50,-97,-100,90,66,1,29.95,29.87,13,4,16,0.01
2013-7-28,67,58,51,66,-38,-100,100,83,1,30.04,29.87,11,3,15,0.02
2013-7-29,76,64,53,68,-31,-100,100,65,1,30.16,30.03,7,2,0,0.00
2013-7-30,75,66,54,71,-16,-100,100,48,1,30.17,30.08,9,2,0,0.05
2013-7-31,80,69,62,68,-8,-100,100,54,1,30.08,29.95,15,2,21,0.95
2013-8-1,78,69,59,72,-26,-100,100,47,1,30.00,29.89,11,2,20,0.00
2013-8-2,80,71,63,74,11,-100,100,65,1,29.96,29.82,10,2,0,0.75
2013-8-3,78,66,51,64,-32,-100,100,62,1,30.13,29.96,12,2,17,0.00
2013-8-4,78,65,53,65,-18,-100,100,67,1,30.22,30.10,6,1,0,0.50
2013-8-5,73,65,60,72,-10,-100,100,82,1,30.11,29.85,10,2,13,0.07
2013-8-6,84,75,66,73,62,-100,100,80,1,29.87,29.77,7,2,0,0.05
2013-8-7,79,73,61,72,54,-100,97,78,1,29.97,29.73,13,3,16,0.00
2013-8-8,82,69,59,64,0,-100,100,73,1,30.05,29.97,7,1,0,0.59
2013-8-9,81,70,58,67,-7,-100,100,70,1,30.06,29.96,10,2,13,2.79
2013-8-10,75,65,53,73,17,-100,100,60,1,30.16,30.06,6,1,0,1.53
2013-8-11,75,63,53,70,-35,-100,100,46,1,30.14,30.02,5,1,0,0.12
2013-8-12,80,71,63,69,47,-100,100,77,1,30.03,29.90,9,2,15,2.22
2013-8-13,71,62,50,69,-49,-100,100,69,1,30.18,29.98,10,2,14,0.00
2013-8-14,74,61,46,70,4,-100,100,73,1,30.24,30.13,7,1,0,0.10
2013-8-15,78,66,58,72,-12,-100,100,77,45,30.15,30.08,4,0,0,4.50
2013-8-16,83,69,58,74,-25,-100,100,68,38,30.18,30.12,6,1,0,8.59
2013-8-17,84,68,53,74,-2,-100,100,51,1,30.24,30.15,10,1,0,3.21
2013-8-18,82,68,53,62,-2,-100,100,49,1,30.21,30.08,8,1,12,3.75
2013-8-19,83,70,55,73,23,-100,100,72,1,30.09,30.01,13,1,16,2.01
2013-8-20,87,76,67,69,10,-100,100,68,1,30.06,29.97,12,3,17,1.77
2013-8-21,90,80,69,72,64,-100,100,70,52,30.00,29.89,15,4,21,2.26
2013-8-22,80,72,68,73,-21,-100,98,66,1,30.12,29.97,18,1,27,2.66
2013-8-23,83,70,54,77,-34,-100,100,43,1,30.18,30.11,8,2,0,4.25
2013-8-24,84,72,54,78,-12,-100,100,55,1,30.24,30.13,8,2,12,1.82
2013-8-25,89,79,70,74,17,-100,100,61,1,30.18,30.06,11,4,17,2.93
2013-8-26,92,81,73,77,72,67,82,73,60,30.11,29.93,10,3,13,4.29
2013-8-27,94,84,76,77,74,70,85,72,55,29.94,29.77,11,3,17,2.58
2013-8-28,86,77,69,75,70,-100,97,84,1,30.04,29.81,6,0,0,6.37
2013-8-29,87,76,62,77,56,-100,100,77,1,30.08,29.95,10,2,12,4.97
2013-8-30,91,79,71,79,72,67,93,81,64,29.95,29.74,12,2,13,2.72
2013-8-31,83,72,65,70,64,-100,96,80,1,29.87,29.77,8,1,0,0.22
2013-9-1,84,72,61,76,20,-100,100,73,1,29.84,29.70,11,2,14,0.47
2013-9-2,68,63,51,61,8,-100,100,76,1,30.02,29.83,9,2,0,0.00
2013-9-3,69,59,46,56,-40,-100,100,79,1,30.13,30.02,6,1,12,0.00
2013-9-4,84,67,51,67,-10,-100,100,52,1,30.14,30.06,8,1,0,0.00
2013-9-5,78,67,58,62,-40,-100,100,57,1,30.25,30.13,9,2,0,1.73
2013-9-6,87,70,52,72,16,-100,100,72,52,30.21,29.96,10,2,13,0.90
2013-9-7,89,78,69,74,27,-100,100,77,58,29.97,29.85,9,2,13,0.61
2013-9-8,72,68,62,69,-34,-100,93,52,1,30.06,29.94,7,1,14,0.00
2013-9-9,93,78,62,78,11,-100,98,51,1,29.97,29.74,13,3,14,0.25
2013-9-10,95,85,75,71,66,63,71,55,35,29.93,29.78,18,4,21,1.76
2013-9-11,82,73,66,74,46,-100,100,77,1,30.06,29.93,8,1,12,2.52
2013-9-12,69,64,56,67,-40,-100,100,89,1,30.16,29.97,15,4,19,0.00
2013-9-13,58,53,44,56,-47,-100,100,95,75,30.27,30.16,10,1,13,0.00
2013-9-14,72,58,40,71,-47,-100,100,72,1,30.21,30.01,8,2,0,0.00
2013-9-15,62,57,54,57,-76,-100,100,40,1,30.25,29.98,6,1,0,0.73
2013-9-16,67,55,40,66,-35,-100,100,71,1,30.44,30.25,8,1,0,0.00
2013-9-17,71,56,39,69,-9,-100,100,81,1,30.38,30.11,11,2,16,0.05
2013-9-18,76,67,59,74,-5,-100,100,69,1,30.11,29.87,12,4,17,0.15
2013-9-19,88,73,67,75,-32,-100,95,43,1,29.88,29.68,12,3,27,2.69
2013-9-20,69,65,56,66,-88,-100,100,50,1,29.85,29.70,11,3,16,0.01
2013-9-21,59,53,45,59,-37,-100,100,76,1,29.98,29.84,12,3,18,0.00
2013-9-22,66,52,39,64,-33,-100,100,86,1,30.12,29.98,5,1,0,0.00
2013-9-23,69,55,42,68,-49,-100,100,69,1,30.15,30.05,9,2,12,0.01
2013-9-24,73,57,43,71,-15,-100,100,72,1,30.07,29.96,8,1,12,0.00
2013-9-25,73,58,44,58,-16,-100,100,74,1,30.02,29.95,7,1,12,0.27
2013-9-26,77,59,42,58,-2,-100,100,58,1,30.09,30.00,10,2,12,0.01
2013-9-27,82,65,48,58,-15,-100,100,57,1,30.13,30.01,9,3,18,0.03
2013-9-28,80,65,54,73,16,-100,100,77,54,30.03,29.81,17,5,26,0.38
2013-9-29,71,58,44,66,-34,-100,100,61,1,30.07,29.97,5,1,0,0.43
2013-9-30,73,60,46,53,-11,-100,100,53,1,30.00,29.80,14,3,14,0.00
2013-10-1,80,67,57,71,26,-100,100,62,1,29.96,29.82,12,3,17,0.00
2013-10-2,78,62,43,68,-1,-100,100,53,1,30.12,29.96,10,2,13,0.00
2013-10-3,76,67,58,68,38,-100,100,79,1,29.98,29.81,11,2,14,10.19
2013-10-4,67,64,61,65,63,60,98,96,93,30.00,29.85,6,1,0,0.19
2013-10-5,74,65,59,71,54,-100,99,96,1,29.94,29.74,8,2,13,0.28
2013-10-6,58,51,42,58,-54,-100,100,69,1,29.77,29.67,8,1,0,0.10
2013-10-7,67,52,41,58,-61,-100,100,60,1,30.10,29.73,11,2,15,0.02
2013-10-8,76,57,38,65,21,-100,100,73,37,30.18,30.09,9,2,14,0.00
2013-10-9,74,60,49,63,-33,-100,100,70,1,30.20,30.11,10,2,14,0.66
2013-10-10,75,57,39,55,12,-100,100,76,41,30.18,30.04,8,2,0,0.00
2013-10-11,75,62,48,64,-11,-100,100,55,1,30.05,29.90,16,4,19,0.00
2013-10-12,69,61,42,61,44,-100,100,73,44,30.16,29.88,10,3,16,0.05
2013-10-13,61,47,36,57,-27,-100,100,75,1,30.45,30.16,13,2,16,0.00
2013-10-14,64,47,32,63,-29,-100,100,72,1,30.47,30.15,8,1,13,0.00
2013-10-15,61,53,48,58,-76,-100,100,49,1,30.15,29.74,11,4,17,0.24
2013-10-16,52,50,47,50,-80,-100,96,62,1,29.96,29.78,12,2,14,0.02
2013-10-17,55,46,37,49,-73,-100,100,54,1,29.94,29.83,6,0,0,0.11
2013-10-18,48,44,38,46,-17,-100,100,82,1,29.97,29.83,11,2,14,0.00
2013-10-19,49,41,32,48,-22,-100,100,76,1,29.94,29.75,8,1,23,0.04
2013-10-20,50,41,30,47,9,-100,98,82,1,29.89,29.73,9,2,14,0.16
2013-10-21,47,38,30,44,14,-100,100,72,1,29.98,29.77,11,3,18,0.00
2013-10-22,46,36,26,44,-16,-100,100,81,1,30.01,29.94,5,2,0,0.00
2013-10-23,42,34,25,42,-6,-100,100,80,1,30.07,30.00,7,1,13,0.00
2013-10-24,43,35,28,40,-16,-100,100,79,52,30.34,30.07,11,2,15,0.00
2013-10-25,51,40,28,50,2,-100,100,67,1,30.41,29.93,15,4,22,0.00
2013-10-26,50,46,38,48,13,-100,100,60,46,30.09,29.81,16,5,24,0.00
2013-10-27,55,42,26,55,4,-100,100,68,40,30.08,29.92,12,2,17,0.00
2013-10-28,43,40,35,40,-16,-100,100,70,1,30.45,30.06,6,1,12,0.00
2013-10-29,54,44,36,43,-9,-100,100,77,1,30.44,30.15,7,1,0,0.00
2013-10-30,56,50,45,54,7,-100,98,86,1,30.15,29.75,11,2,14,0.00
2013-10-31,62,56,43,61,5,-100,98,81,1,29.75,29.27,11,3,19,0.67
2013-11-1,46,43,39,44,40,-100,96,92,88,29.78,29.34,11,2,16,0.04
2013-11-2,45,39,30,44,33,-100,100,90,1,30.19,29.77,9,2,15,0.01
2013-11-3,50,38,24,39,29,-100,98,82,1,30.34,30.19,13,2,16,0.01
2013-11-4,52,48,42,52,19,-100,100,79,68,30.24,30.05,17,5,22,0.00
2013-11-5,54,50,47,52,8,-100,97,75,1,30.27,29.86,15,2,23,0.45
2013-11-6,55,42,31,54,18,-100,100,81,1,30.19,29.70,17,5,23,0.28
2013-11-7,40,34,28,40,5,-100,100,79,1,30.28,30.19,11,2,16,0.00
2013-11-8,46,36,22,44,20,-100,100,79,1,30.33,29.83,15,4,22,0.00
2013-11-9,52,46,38,50,24,-100,100,71,56,30.11,29.78,18,7,26,0.00
2013-11-10,48,42,37,46,16,-100,100,68,51,30.36,30.11,13,4,17,0.00
2013-11-11,44,32,21,34,25,-100,95,77,67,30.61,30.08,14,4,19,0.04
2013-11-12,29,22,17,22,12,-100,100,73,54,30.78,30.61,10,3,12,0.00
2013-11-13,42,31,18,41,8,-100,100,61,39,30.62,30.11,18,6,24,0.00
2013-11-14,47,40,31,42,10,-100,100,64,51,30.11,29.91,14,4,17,0.01
2013-11-15,55,44,34,55,10,-100,100,72,1,29.96,29.89,9,2,0,0.00
2013-11-16,58,48,38,55,37,-100,97,91,1,29.90,29.49,17,7,25,0.14
2013-11-17,58,50,39,56,22,-100,100,85,1,29.68,29.16,17,5,24,1.07
2013-11-18,38,33,25,33,26,21,85,77,64,30.31,29.69,20,6,25,0.00
2013-11-19,40,30,17,39,-6,-100,100,84,1,30.41,30.28,9,2,14,0.00
2013-11-20,40,36,33,40,-39,-100,100,71,1,30.29,30.12,17,5,23,0.03
2013-11-21,43,39,36,39,-24,-100,96,72,1,30.29,30.14,9,2,0,0.00
2013-11-22,37,30,23,35,-5,-100,100,67,1,30.52,30.28,14,4,18,0.00
2013-11-23,25,17,10,18,7,-100,86,68,1,30.80,30.46,18,6,24,0.00
2013-11-24,27,17,6,10,6,3,87,63,37,30.77,30.32,18,4,22,0.00
2013-11-25,30,28,22,26,24,9,92,85,56,30.32,30.06,12,4,17,0.00
2013-11-26,32,25,12,27,16,-100,100,73,58,30.28,30.06,15,5,24,0.00
2013-11-27,26,18,10,14,10,4,84,72,56,30.35,30.26,11,3,15,0.00
2013-11-28,29,24,17,18,15,12,80,69,60,30.57,30.21,10,2,0,0.00
2013-11-29,34,22,7,26,-21,-100,100,81,1,30.68,30.40,7,2,14,0.00
2013-11-30,43,34,27,43,-52,-100,100,72,1,30.40,30.08,8,2,14,0.00
2013-12-1,40,32,26,38,-29,-100,100,78,1,30.19,30.02,6,1,0,0.00
2013-12-2,39,32,22,38,-49,-100,100,62,1,30.02,29.78,10,2,19,0.00
2013-12-3,39,36,34,36,-92,-100,98,27,1,29.78,29.69,11,2,15,0.25
2013-12-4,49,40,34,49,-31,-100,99,61,1,29.79,29.47,14,2,21,0.13
2013-12-5,34,21,13,30,-5,-100,100,72,1,30.34,29.65,14,5,21,0.00
2013-12-6,16,10,6,8,4,1,82,75,60,30.64,30.32,11,4,16,0.00
2013-12-7,14,6,0,3,0,-3,86,76,55,30.79,30.64,9,2,13,0.00
2013-12-8,20,14,6,18,10,-1,92,81,66,30.70,30.03,6,1,0,0.00
2013-12-9,16,9,-4,13,-2,-100,91,77,1,30.26,30.01,14,3,18,0.00
2013-12-10,17,8,-5,10,2,-8,86,76,62,30.34,29.99,13,4,18,0.00
2013-12-11,13,6,-4,11,0,-9,89,74,56,30.61,30.33,15,3,16,0.00
2013-12-12,18,10,-4,17,-26,-100,100,70,1,30.58,30.26,13,3,15,0.00
2013-12-13,25,18,13,18,-60,-100,100,55,1,30.27,30.21,7,1,12,0.00
2013-12-14,23,20,17,20,-47,-100,91,65,1,30.24,29.99,10,2,13,0.00
2013-12-15,20,10,2,16,-7,-100,100,72,1,30.22,29.99,15,5,18,0.00
2013-12-16,14,6,-5,12,0,-100,92,79,1,30.24,30.09,7,1,0,0.00
2013-12-17,34,24,14,26,5,-100,94,75,1,30.12,29.97,11,4,17,0.00
2013-12-18,35,23,10,27,10,-100,100,75,1,30.16,29.81,15,4,19,0.00
2013-12-19,32,26,20,28,20,-100,96,87,1,30.04,29.83,7,1,13,0.00
2013-12-20,24,22,20,22,20,18,95,93,91,29.95,29.87,8,2,14,0.00
2013-12-21,26,24,22,25,23,21,96,95,95,29.95,29.78,9,2,13,0.00
2013-12-22,26,23,15,25,21,13,95,94,93,30.17,29.76,12,3,17,0.00
2013-12-23,19,10,-2,18,7,-5,95,87,78,30.51,30.17,9,2,0,0.00
2013-12-24,13,2,-11,7,-20,-100,100,84,1,30.64,30.39,9,2,0,0.00
2013-12-25,23,19,10,20,-23,-100,92,78,1,30.38,30.13,9,3,15,0.00
2013-12-26,25,19,12,21,-33,-100,92,67,1,30.29,30.15,7,1,15,0.00
2013-12-27,36,27,9,31,-33,-100,96,63,1,30.30,30.04,11,2,15,0.01
2013-12-28,42,35,26,34,19,-100,95,79,1,30.08,29.77,12,4,16,0.24
2013-12-29,38,18,-5,32,14,-10,93,81,73,30.31,29.75,19,6,23,0.00
2013-12-30,2,-4,-14,-2,-9,-16,86,75,57,30.42,30.30,5,1,0,0.00
2013-12-31,6,2,-4,3,-2,-6,87,83,71,30.46,30.29,6,1,0,0.00
2014-1-1,8,4,-1,1,-3,-7,78,74,69,30.49,30.40,9,3,13,0.00
2014-1-2,11,4,-8,3,-1,-10,86,77,67,30.52,30.36,13,4,15,0.00